Tracking 30922 objects as of 2-Jul-2025
HD Live streaming from Space Station
objects crossing your sky now

OBJECT N

Track OBJECT N now!
10-day predictions


NORAD ID: 57016
Int'l Code: 2023-085N
Perigee: 388.5 km
Apogee: 394.9 km
Inclination: 97.5 °
Period: 92.2 minutes
Semi major axis: 6762 km
RCS: Unknown
Launch date: June 15, 2023
Source: People's Republic of China (PRC)
Launch site: Taiyaun Space Center, China (TSC)
Your satellite tracking list
Your tracking list is empty




NASA's NSSDC Master Catalog

Two Line Element Set (TLE):
1 57016U 23085N   25182.86955313  .00065863  00000-0  77892-3 0  9999
2 57016  97.4761 298.7404 0004741 166.9096 193.2285 15.61066520113919
Source of the keplerian elements: AFSPC